Jadwal Kapal Pelni AWU dan Harga Tiket Terbaru 2017

kawah gunung awuJadwal Keberangkatan Kapal Pelni Awu Terbaru Tahun 2016 – KM. AWU yang merupakan salah satu nama kapal pelni, mungkin namanya berasal dari nama salah satu gunung yang ada di Indonesia. Penamaan beberapa kapal pelni bila dilihat secara seksama maka kebanyakan akan mengambil dari nama bukit atau gunung yang ada di wilayah Indonesia. KM. AWU ini mungkin diambil dari nama gunung berapi yang terletak di Pulau Sangihe, Kepulauan Sangihe yaitu Gunung AWU. Kepulauan Sangihe ini terletak di Provinsi Sulawesi Utara. Ketinggian gunung ini mencapai 1.320 meter (4.331 kaki). Letak Gunung AWU ini berada pada titik koordinat 3°40’ LU 125°30 BT. Secara geologi gunung AWU ini bertipe Stratovolcano dan umur batuannya mencapai 100.000 tahun. Gunung AWU adalah gunung berapi terbesar dalam rantai Sangihe. Erupsi gunung berapi ini terjadi pada tahun 1711, 1812, 1856, 1892 dan 1966 dengan aliran piroklastik dan lahar yang merusak yang telah mengakibatkan 8000 orang tewas akibat erupsi dari gunung ini. Letusan terakhir dari Gunung AWU ini terjadi pada Juni – Agustus tahun 2004.

Kapal Pelni AwuJadwal Kapal Pelni AWU 2016 – Bila anda berniat memakai jasa transportasi yang disediakan oleh PT Pelni maka anda bisa memilih kelas sesuai dengan kemampuan kantong anda, karena disini ada berbagai kelas yang disediakan dari kelas ekonomi yang duduk lesehan dibawah atau dalam bangsal-bangsal sampai kelas dengan kamar yang hanya diisi 2 orang penumpang saja dengan fasilitas kamar mandi/closet sendiri, lemari, televisi, 2 tempat tidur. Bila anda ingin menggunakan kapal pelni, maka bagi kalangan tertentu, PT pelni memberikan diskon khusus, yaitu:

  1. Diskon harga tiket sebesar 20% untuk lansia (60 tahun keatas).
  2. Diskon harga tiket sebesar 30% untuk veteran.
  3. Diskon harga tiket sebesar 50% untuk cacat veteran.
  4. Diskon harga tiket sebesar 5% khusus bagi pemesan berkelompok minimal 40 orang.

Kapasitas daya angkut Kapal Laut Awu tidak terlalu besar hanya sanggup memuat calon penumpang sampai 969 orang. Tiket pelni yang dijual untuk Awu ini ada 3 macam kelas yaitu Kelas 1 (14 penumpang), Kelas 2 (40 penumpang) dan Kelas Ekonomi (915 penumpang) .Kapal pelni lainnya yang sejenis KM. AWU adalah KM.Tatamailau dan KM. Sirimau. KM AWU dibuat pada tahun 1991 di Jerman, yang berarti saat ini Kapal Pelni tersebut telah berusia 24 tahun.

Bila anda ingin mencari Jadwal Kapal Pelni Awu Terbaru di bulan Puasa/Ramadhan serta Liburan Hari Raya Idul Fitri tahun 2016, maka silahkan anda lihat tabel dibawah ini !

Jadwal Keberangkatan Kapal Pelni Awu Januari – Februari 2017

Beberapa pelabuhan di Indonesia yang menjadi rute pelayaran kapal pelni Awu di bulan puasa Januari – Februari 2017 lebih banyak berada di Kawasan Indonesia Timur. Adapun pelabuhan tujuan untuk pelayaran kapal pelni awu ini yaitu SURABAYA, KUMAI, BENOA/DENPASAR, BIMA, WAINGAPU, ENDE, SABU, ROTE, KUPANG, LARANTUKA, KALABAHI.

Advertisement
Pelabuhan BerangkatPelabuhan TibaJadwal BerangkatJadwal Tiba
SURABAYABENOA/DENPASAR21-12-2016 | 13:0022-12-2016 | 16:00
BENOA/DENPASARBIMA22-12-2016 | 19:0023-12-2016 | 14:00
BIMAWAINGAPU23-12-2016 | 15:0024-12-2016 | 06:00
WAINGAPUENDE24-12-2016 | 10:0024-12-2016 | 21:00
ENDESABU24-12-2016 | 22:0025-12-2016 | 07:00
SABUROTE25-12-2016 | 08:0025-12-2016 | 15:00
ROTEKUPANG25-12-2016 | 16:0025-12-2016 | 21:00
KUPANGLARANTUKA26-12-2016 | 01:0026-12-2016 | 12:00
LARANTUKAKALABAHI26-12-2016 | 13:0026-12-2016 | 19:00
KALABAHIKUPANG26-12-2016 | 21:0026-12-2016 | 12:00
KUPANGROTE27-12-2016 | 15:0027-12-2016 | 21:00
ROTESABU27-12-2016 | 22:0028-12-2016 | 05:00
SABUENDE28-12-2016 | 06:0028-12-2016 | 13:00
ENDEWAINGAPU28-12-2016 | 14:0029-12-2016 | 01:00
WAINGAPUBIMA29-12-2016 | 01:0529-12-2016 | 14:00
BIMABENOA/DENPASAR29-12-2016 | 15:0001-01-2017 | 17:00
BENOA/DENPASARSURABAYA01-01-2017 | 19:0002-01-2017 | 20:00
SURABAYAKUMAI03-01-2017 | 18:0004-01-2017 | 20:00
KUMAISURABAYA04-01-2017 | 21:0005-01-2017 | 23:59
SURABAYABENOA/DENPASAR06-01-2017 | 14:0007-01-2017 | 16:00
BENOA/DENPASARBIMA07-01-2017 | 19:0008-01-2017 | 14:00
BIMAWAINGAPU08-01-2017 | 15:0009-01-2017 | 06:00
WAINGAPUENDE09-01-2017 | 10:0009-01-2017 | 21:00
ENDESABU09-01-2017 | 22:0010-01-2017 | 07:00
SABUROTE10-01-2017 | 08:0010-01-2017 | 15:00
ROTEKUPANG10-01-2017 | 16:0010-01-2017 | 21:00
KUPANGLARANTUKA11-01-2017 | 01:0011-01-2017 | 12:00
LARANTUKAKALABAHI11-01-2017 | 13:0011-01-2017 | 22:00
KALABAHIKUPANG11-01-2017 | 23:0012-01-2017 | 12:00
KUPANGROTE12-01-2017 | 16:0012-01-2017 | 21:00
ROTESABU12-01-2017 | 22:0013-01-2017 | 05:00
SABUENDE13-01-2017 | 06:0013-01-2017 | 15:00
ENDEWAINGAPU13-01-2017 | 16:0014-01-2017 | 01:00
WAINGAPUBIMA14-01-2017 | 01:0515-01-2017 | 14:00
BIMABENOA/DENPASAR14-01-2017 | 15:0015-01-2017 | 17:00
BENOA/DENPASARSURABAYA15-01-2017 | 19:0016-01-2017 | 20:00
SURABAYAKUMAI17-01-2017 | 18:0018-01-2017 | 20:00
KUMAISURABAYA18-01-2017 | 21:0019-01-2017 | 23:59
SURABAYABENOA/DENPASAR20-01-2017 | 14:0021-01-2017 | 16:00
BENOA/DENPASARBIMA21-01-2017 | 19:0022-01-2017 | 14:00
BIMAWAINGAPU22-01-2017 | 15:0023-01-2017 | 06:00
WAINGAPUENDE23-01-2017 | 10:0023-01-2017 | 21:00
ENDESABU23-01-2017 | 22:0024-01-2017 | 07:00
SABUROTE24-01-2017 | 08:0024-01-2017 | 15:00
ROTEKUPANG24-01-2017 | 16:0024-01-2017 | 21:00
KUPANGLARANTUKA25-01-2017 | 01:0025-01-2017 | 12:00
LARANTUKAKALABAHI25-01-2017 | 13:0025-01-2017 | 22:00
KALABAHIKUPANG25-01-2017 | 23:0026-01-2017 | 12:00
KUPANGROTE26-01-2017 | 16:0026-01-2017 | 21:00
ROTESABU26-01-2017 | 22:0027-01-2017 | 05:00
SABUENDE27-01-2017 | 06:0027-01-2017 | 15:00
ENDEWAINGAPU27-01-2017 | 16:0028-01-2017 | 01:00
WAINGAPUBIMA28-01-2017 | 01:0528-01-2017 | 14:00
BIMABENOA/DENPASAR28-01-2017 | 15:0029-01-2017 | 17:00
BENOA/DENPASARSURABAYA29-01-2017 | 19:0030-01-2017 | 20:00
SURABAYAKUMAI31-01-2017 | 18:0001-02-2017 | 20:00
KUMAISURABAYA01-02-2017 | 21:0002-02-2017 | 23:59
SURABAYABENOA/DENPASAR03-02-2017 | 14:0004-02-2017 | 16:00
BENOA/DENPASARBIMA04-02-2017 | 19:0005-02-2017 | 14:00
BIMAWAINGAPU05-02-2017 | 15:0006-02-2017 | 06:00
WAINGAPUENDE06-02-2017 | 10:0006-02-2017 | 21:00
ENDESABU06-02-2017 | 22:0007-02-2017 | 07:00
SABUROTE07-02-2017 | 08:0007-02-2017 | 15:00
ROTEKUPANG07-02-2017 | 16:0007-02-2017 | 21:00
KUPANGLARANTUKA08-02-2017 | 01:0008-02-2017 | 12:00
LARANTUKAKALABAHI08-02-2017 | 13:0008-02-2017 | 22:00
KALABAHIKUPANG08-02-2017 | 23:0009-02-2017 | 12:00
KUPANGROTE09-02-2017 | 16:0009-02-2017 | 21:00
ROTESABU09-02-2017 | 22:0010-02-2017 | 05:00
SABUENDE10-02-2017 | 06:0010-02-2017 | 15:00
ENDEWAINGAPU10-02-2017 | 16:0011-02-2017 | 01:00
WAINGAPUBIMA11-02-2017 | 01:0512-02-2017 | 14:00
BIMABENOA/DENPASAR11-02-2017 | 15:0012-02-2017 | 17:00
BENOA/DENPASARSURABAYA12-02-2017 | 19:0013-02-2017 | 20:00
SURABAYAKUMAI14-02-2017 | 18:0015-02-2017 | 20:00
KUMAISURABAYA15-02-2017 | 21:0016-02-2017 | 23:59
SURABAYABENOA/DENPASAR17-02-2017 | 14:0018-02-2017 | 16:00
BENOA/DENPASARBIMA18-02-2017 | 19:0019-02-2017 | 14:00
BIMAWAINGAPU19-02-2017 | 15:0020-02-2017 | 06:00
WAINGAPUENDE20-02-2017 | 10:0020-02-2017 | 21:00
ENDESABU20-02-2017 | 22:0021-02-2017 | 07:00
SABUROTE21-02-2017 | 08:0021-02-2017 | 15:00
ROTEKUPANG21-02-2017 | 16:0021-02-2017 | 21:00
KUPANGLARANTUKA22-02-2017 | 01:0022-02-2017 | 12:00
LARANTUKAKALABAHI22-02-2017 | 13:0022-02-2017 | 22:00
KALABAHIKUPANG22-02-2017 | 23:0023-02-2017 | 12:00
KUPANGROTE23-02-2017 | 16:0023-02-2017 | 21:00
ROTESABU23-02-2017 | 22:0024-02-2017 | 05:00
SABUENDE24-02-2017 | 06:0024-02-2017 | 15:00
ENDEWAINGAPU24-02-2017 | 16:0025-02-2017 | 01:00
WAINGAPUBIMA25-02-2017 | 01:0525-02-2017 | 14:00
BIMABENOA/DENPASAR25-02-2017 | 15:0026-02-2017 | 17:00
BENOA/DENPASARSURABAYA26-02-2017 | 19:0027-02-2017 | 20:00

Update: 7 Desember 2016

*Jadwal dapat berubah sewaktu – waktu

Perlu diketahui bahwa Jadwal Keberangkatan Kapal Pelni Awu di atas, sewaktu waktu bisa mengalami perubahan karena alasan tertentu.

Kami sarankan anda mencocokkan jadwal kami dengan jadwal resmi dari PT Pelni di situs pelni.co.id

Atau cari informasi lebih lanjut melalui call center berikut:

  • PSTN Jabodetabek: 162
  • Handphone: 021 162
  • PSTN Luar Jabodetabek: 021 21 88 7000
  • Fax: +62 21 6385 4130
  • E-mail: infopelni162(at)pelni(dot)co(dot)id

Semoga beberapa Jadwal Keberangkatan Kapal Pelni seperti :

Bisa bermanfaat bagi anda yang sedang mencari Jadwal Keberangkatan Kapal Pelni Terbaru di Awal Tahun Baru 2017 … Amin

Advertisement

Ini Yang Anda Cari :

cek harga tiket kapal feri kupang larantuka januari 2017 | info tiket kapal laut kupang ende | jadwal kapal cepat kupang alor | jadwal kpl besar alor kupang | Jadwal Pelni Ende 2017 | pelni alor jadwal kapal Awu alor kupang 2017 |